Simultaneous Nadir Overpasses (SNOs) Predictions

Prediction of SNOs between GOES-16 and AQUA Satellite Orbit:

Table of predicted SNOs for the next 14.0 days since TLE Epoch: 7/11/2025
Index Date Time (GOES-16) GOES-16 Lat,Lon AQUA Lat,Lon Distance(km) Time Diff (sec)
1 07/11/2025 21:54:24 0.01,-104.71 -0.54,-107.34 298.41 80
2 07/13/2025 21:36:42 0.02,-104.71 0.54,-102.35 268.95 80
3 07/14/2025 09:55:50 -0.02,-104.71 0.49,-106.97 257.00 80
4 07/16/2025 09:32:48 -0.01,-104.71 -0.61,-101.99 310.66 80
5 07/16/2025 21:52:05 0.01,-104.71 -0.38,-106.65 219.71 80
6 07/18/2025 21:34:22 0.01,-104.71 0.68,-101.65 347.99 80
7 07/19/2025 09:53:30 -0.01,-104.71 0.34,-106.27 177.77 80
8 07/21/2025 09:30:27 -0.00,-104.70 -0.74,-101.28 389.42 80
9 07/21/2025 21:49:43 0.00,-104.70 -0.24,-105.94 141.22 80
10 07/23/2025 21:31:59 -0.00,-104.69 0.80,-100.94 426.30 80
11 07/24/2025 09:51:07 0.00,-104.70 0.22,-105.56 99.28 80
